Wichita Falls, TX

7:29 PM CDT on May 20, 2018 (GMT -0500)
Wichita Falls

Weather History for KCWC - May, 2013

Change the Weather History Date:

Tuesday, May 14, 2013

  Actual Average (KSPS) Record (KSPS)
Temperature  
Mean Temperature 78 °F -  
Max Temperature 91 °F 82 °F 100 °F (1952)
Min Temperature 65 °F 58 °F 43 °F (1971)
Cooling Degree Days 13    
Growing Degree Days 28 (Base 50)    
Moisture  
Dew Point 46 °F    
Average Humidity 31    
Maximum Humidity 50    
Minimum Humidity 17    
Precipitation  
Precipitation 0.00 in - - ()
Sea Level Pressure  
Sea Level Pressure 30.04 in    
Wind  
Wind Speed 13 mph (South)    
Max Wind Speed 21 mph    
Max Gust Speed 30 mph    
Visibility 10 miles    
Events Thunderstorm    
Averages and records for this station are not official NWS values.
T = Trace of Precipitation, MM = Missing Value Source: NWS Daily Summary

Daily Weather History Graph

Daily Weather History Graph

Search for Another Location

Airport or City:

Astronomy

May. 14, 2013 Rise Set
Actual Time 6:33 AM CDT 8:27 PM CDT
Civil Twilight 6:05 AM CDT 8:55 PM CDT
Nautical Twilight 5:32 AM CDT 9:28 PM CDT
Astronomical Twilight 4:56 AM CDT 10:04 PM CDT
Moon 10:13 AM CDT (5/14) No Moon Set
Length of Visible Light 14h 49m
Length of Day
13h 54m
Waxing Crescent, 19% of the Moon is Illuminated
May 14
Waxing Crescent
May 17
First Quarter
May 24
Full
May 31
Last Quarter
Jun 8
New

Hourly Weather History & Observations

Time (CDT) Temp. Dew Point Humidity Pressure Visibility Wind Dir Wind Speed Gust Speed Precip Events Conditions
12:15 AM 74.7 °F 37.8 °F 26% 30.10 in 10.0 mi South 15.0 mph 21.9 mph N/A   Clear
12:35 AM 75.4 °F 37.8 °F 26% 30.10 in 10.0 mi South 16.1 mph 21.9 mph N/A   Clear
12:55 AM 75.6 °F 37.6 °F 25% 30.10 in 10.0 mi South 16.1 mph 21.9 mph N/A   Clear
1:15 AM 74.8 °F 38.7 °F 27% 30.10 in 10.0 mi South 17.3 mph 26.5 mph N/A   Clear
1:35 AM 74.1 °F 39.2 °F 28% 30.10 in 10.0 mi South 17.3 mph 24.2 mph N/A   Clear
1:55 AM 73.4 °F 39.7 °F 30% 30.10 in 10.0 mi South 13.8 mph 21.9 mph N/A   Clear
2:15 AM 72.7 °F 41.0 °F 32% 30.09 in 10.0 mi South 16.1 mph 21.9 mph N/A   Clear
2:35 AM 72.9 °F 41.9 °F 33% 30.09 in 10.0 mi South 13.8 mph 19.6 mph N/A   Clear
2:55 AM 72.1 °F 42.1 °F 34% 30.09 in 10.0 mi South 13.8 mph 19.6 mph N/A   Clear
3:15 AM 71.6 °F 42.4 °F 35% 30.09 in 10.0 mi SSW 11.5 mph 17.3 mph N/A   Clear
3:35 AM 70.9 °F 43.2 °F 37% 30.09 in 10.0 mi SSW 10.4 mph 17.3 mph N/A   Clear
3:55 AM 70.3 °F 43.7 °F 38% 30.09 in 10.0 mi SSW 10.4 mph 17.3 mph N/A   Clear
4:15 AM 70.0 °F 44.2 °F 40% 30.09 in 10.0 mi SSW 11.5 mph 17.3 mph N/A   Clear
4:35 AM 69.4 °F 44.6 °F 41% 30.09 in 10.0 mi SSW 9.2 mph - N/A   Clear
4:55 AM 69.1 °F 45.0 °F 42% 30.09 in 10.0 mi SSW 10.4 mph 18.4 mph N/A   Clear
5:15 AM 68.9 °F 45.3 °F 43% 30.09 in 10.0 mi SSW 9.2 mph - N/A   Clear
5:35 AM 68.5 °F 45.5 °F 44% 30.10 in 10.0 mi SSW 11.5 mph - N/A   Clear
5:55 AM 68.0 °F 45.7 °F 45% 30.10 in 10.0 mi SSW 8.1 mph - N/A   Clear
6:15 AM 67.3 °F 45.9 °F 46% 30.09 in 10.0 mi SSW 6.9 mph - N/A   Clear
6:35 AM 66.4 °F 46.0 °F 48% 30.10 in 10.0 mi SSW 4.6 mph - N/A   Clear
6:55 AM 65.7 °F 46.4 °F 50% 30.10 in 10.0 mi SSW 4.6 mph - N/A   Clear
7:15 AM 66.0 °F 46.4 °F 49% 30.10 in 10.0 mi SSW 4.6 mph - N/A   Clear
7:35 AM 66.0 °F 46.6 °F 49% 30.10 in 10.0 mi SSW 5.8 mph - N/A   Clear
7:55 AM 67.5 °F 46.8 °F 47% 30.11 in 10.0 mi SSW 6.9 mph - N/A   Clear
8:15 AM 69.4 °F 47.1 °F 45% 30.11 in 10.0 mi SSW 8.1 mph - N/A   Clear
8:35 AM 71.8 °F 47.5 °F 42% 30.12 in 10.0 mi South 10.4 mph - N/A   Clear
8:55 AM 72.7 °F 47.7 °F 41% 30.12 in 10.0 mi SSW 12.7 mph 17.3 mph N/A   Clear
9:15 AM 75.2 °F 48.2 °F 38% 30.12 in 10.0 mi SW 10.4 mph 16.1 mph N/A   Clear
9:35 AM 76.5 °F 48.2 °F 37% 30.12 in 10.0 mi SW 9.2 mph 16.1 mph N/A   Clear
9:55 AM 78.8 °F 48.4 °F 34% 30.12 in 10.0 mi SW 11.5 mph 17.3 mph N/A   Clear
10:15 AM 79.9 °F 48.7 °F 34% 30.12 in 10.0 mi SW 9.2 mph 19.6 mph N/A   Clear
10:35 AM 80.6 °F 48.4 °F 32% 30.12 in 10.0 mi SSW 11.5 mph 23.0 mph N/A   Clear
10:55 AM 80.8 °F 48.2 °F 32% 30.12 in 10.0 mi SW 11.5 mph 21.9 mph N/A   Clear
11:15 AM 82.8 °F 48.9 °F 31% 30.12 in 10.0 mi SSW 13.8 mph - N/A   Clear
11:35 AM 82.9 °F 48.9 °F 31% 30.11 in 10.0 mi SW 10.4 mph 18.4 mph N/A   Clear
11:55 AM 84.6 °F 48.6 °F 29% 30.10 in 10.0 mi SSW 11.5 mph 18.4 mph N/A   Clear
12:15 PM 85.6 °F 47.8 °F 27% 30.09 in 10.0 mi South 11.5 mph 17.3 mph N/A   Clear
12:35 PM 86.9 °F 46.4 °F 24% 30.08 in 10.0 mi SSW 16.1 mph 20.7 mph N/A   Clear
12:55 PM 87.1 °F 42.3 °F 21% 30.07 in 10.0 mi South 17.3 mph 24.2 mph N/A   Clear
1:15 PM 88.2 °F 43.3 °F 21% 30.06 in 10.0 mi South 13.8 mph 24.2 mph N/A   Clear
1:35 PM 88.5 °F 41.9 °F 20% 30.05 in 10.0 mi South 10.4 mph 26.5 mph N/A   Clear
1:55 PM 88.7 °F 42.1 °F 20% 30.04 in 10.0 mi South 18.4 mph 23.0 mph N/A   Clear
2:15 PM 89.6 °F 43.0 °F 20% 30.03 in 10.0 mi South 15.0 mph 23.0 mph N/A   Clear
2:35 PM 90.5 °F 39.7 °F 17% 30.02 in 10.0 mi SSW 11.5 mph 21.9 mph N/A   Clear
2:55 PM 90.3 °F 41.5 °F 18% 30.02 in 10.0 mi South 13.8 mph 20.7 mph N/A   Clear
3:15 PM 89.8 °F 43.9 °F 20% 30.00 in 10.0 mi South 9.2 mph 17.3 mph N/A   Clear
3:35 PM 91.4 °F 45.0 °F 20% 29.99 in 10.0 mi South 15.0 mph 26.5 mph N/A   Clear
3:55 PM 91.2 °F 46.2 °F 21% 29.98 in 10.0 mi South 18.4 mph 25.3 mph N/A   Clear
4:15 PM 90.0 °F 46.9 °F 23% 29.97 in 10.0 mi South 17.3 mph 25.3 mph N/A   Clear
4:35 PM 90.7 °F 46.6 °F 22% 29.96 in 10.0 mi South 20.7 mph 26.5 mph N/A   Clear
4:55 PM 91.6 °F 46.6 °F 21% 29.96 in 10.0 mi South 15.0 mph 23.0 mph N/A   Clear
5:15 PM 90.5 °F 46.4 °F 22% 29.95 in 10.0 mi South 18.4 mph 27.6 mph N/A   Clear
5:35 PM 90.5 °F 46.2 °F 22% 29.95 in 10.0 mi South 17.3 mph 27.6 mph N/A   Scattered Clouds
5:55 PM 90.5 °F 45.5 °F 21% 29.94 in 10.0 mi South 17.3 mph 25.3 mph N/A   Scattered Clouds
6:15 PM 88.5 °F 45.7 °F 23% 29.94 in 10.0 mi South 16.1 mph 26.5 mph N/A   Scattered Clouds
6:35 PM 90.1 °F 45.5 °F 21% 29.93 in 10.0 mi South 17.3 mph - N/A   Scattered Clouds
6:55 PM 89.8 °F 47.3 °F 23% 29.92 in 10.0 mi South 20.7 mph 24.2 mph N/A   Scattered Clouds
7:15 PM 88.5 °F 48.7 °F 25% 29.92 in 10.0 mi South 19.6 mph 29.9 mph N/A   Scattered Clouds
7:35 PM 87.8 °F 49.1 °F 26% 29.91 in 10.0 mi SSE 15.0 mph 26.5 mph N/A   Clear
7:55 PM 86.5 °F 49.5 °F 28% 29.91 in 10.0 mi South 17.3 mph 23.0 mph N/A   Clear
8:15 PM 85.3 °F 49.3 °F 29% 29.91 in 10.0 mi South 12.7 mph - N/A   Clear
8:35 PM 83.7 °F 50.0 °F 31% 29.91 in 10.0 mi South 13.8 mph 18.4 mph N/A   Clear
8:55 PM 83.1 °F 49.8 °F 31% 29.92 in 10.0 mi SSE 12.7 mph - N/A   Clear
9:15 PM 82.4 °F 49.3 °F 31% 29.92 in 10.0 mi SSE 16.1 mph 20.7 mph N/A   Clear
9:35 PM 80.6 °F 49.5 °F 34% 29.93 in 10.0 mi SSE 12.7 mph - N/A   Clear
9:55 PM 80.4 °F 47.8 °F 32% 29.95 in 10.0 mi SSE 13.8 mph 20.7 mph N/A   Clear
10:15 PM 80.1 °F 47.3 °F 32% 29.96 in 10.0 mi SSE 16.1 mph 20.7 mph N/A   Clear
10:35 PM 79.3 °F 47.3 °F 32% 29.97 in 10.0 mi SSE 11.5 mph - N/A   Clear
10:55 PM 78.1 °F 47.1 °F 33% 29.97 in 10.0 mi SSE 11.5 mph - N/A Thunderstorm Clear
11:15 PM 78.1 °F 46.9 °F 33% 29.97 in 10.0 mi SSE 12.7 mph - N/A   Clear
11:35 PM 77.9 °F 47.3 °F 34% 29.99 in 10.0 mi SSW 11.5 mph - N/A   Scattered Clouds
11:55 PM 79.3 °F 48.2 °F 33% 29.99 in 10.0 mi SSW 6.9 mph - N/A   Mostly Cloudy